[[{"header":{"parameterUnit":"m.s-1","parameterCategory":1,"la1":30.2991,"la2":30.254,"lo1":-89.0895,"lo2":-89.0444,"dy":0.0017,"dx":0.0017,"nx":28,"ny":28,"refTime":"2025-09-07T21:00:00:Z","depth":0,"parameterNumber":2,"parameterNumberName":"U-component_of_WINDS"},"data":[0,0,0,0,0,0,0,0,0,0,0,0,0,0,0,0,0,0,0,0,0,0,0,0,0,0,0,0,0,0,0,0,0,0,0,0,0,0,0,0,0,0,0,0,0,0,0,0,0,0,0,0,0,0,0,0,0,0,-3.7648,-3.7647,0,-3.7611,-3.7611,-3.761,-3.7469,-3.7466,-3.7463,-3.746,-3.7426,-3.7428,-3.743,0,0,0,0,0,0,0,0,0,0,0,0,0,-3.7602,-3.7604,-3.7648,-3.7647,-3.7647,-3.7611,-3.7611,-3.761,-3.747,-3.7466,-3.7462,-3.7458,-3.7425,-3.7428,-3.743,0,0,0,0,0,0,0,0,0,0,0,0,0,-3.7599,-3.7604,-3.7648,-3.7572,-3.7565,-3.7611,-3.7611,-3.761,-3.747,-3.7466,-3.7461,-3.7456,-3.7424,-3.7427,-3.743,-3.7547,0,0,-3.744,-3.7442,0,0,0,0,0,0,0,0,-3.76,-3.7601,-3.7584,-3.7578,-3.757,-3.7539,-3.7582,-3.7589,-3.7472,-3.7507,-3.7459,-3.7454,-3.7468,-3.7467,-3.7471,-3.7546,-3.7544,-3.744,-3.7442,-3.7444,-3.7445,0,0,0,0,0,0,0,-3.76,-3.7602,-3.7633,-3.7584,-3.7575,-3.7542,-3.7536,-3.7583,-3.7515,-3.7503,-3.7493,-3.749,-3.7463,-3.7468,-3.7469,-3.7544,-3.744,-3.7443,-3.7445,-3.7446,-3.7717,-3.7722,0,0,0,0,0,0,-3.761,-3.7603,-3.7634,-3.7632,-3.7573,-3.7547,-3.7541,-3.7554,-3.7514,-3.7503,-3.7494,-3.7484,-3.7465,-3.7466,-3.7467,-3.7604,-3.7444,-3.7447,-3.7449,-3.7711,-3.7718,-3.7724,0,0,0,0,0,0,-3.761,-3.7614,-3.7636,-3.7615,-3.7615,-3.7553,-3.757,-3.7556,-3.7561,-3.7507,-3.7495,-3.7512,-3.7461,-3.7463,-3.7529,-3.7601,-3.7448,-3.7451,-3.7705,-3.7713,-3.7721,-3.7877,0,0,0,0,0,0,-3.7609,-3.7615,-3.7657,-3.7617,-3.7617,-3.7697,-3.7574,-3.7559,-3.7566,-3.7552,-3.7521,-3.7511,-3.7458,-3.7525,-3.7532,-3.7603,-3.7454,-3.7699,-3.7709,-3.7718,-3.7866,-3.789,-3.791,0,0,0,0,0,-3.7608,-3.7703,-3.766,-3.7665,-3.7668,-3.7701,-3.7701,-3.7637,-3.7573,-3.7616,-3.7582,-3.7512,-3.7592,-3.7533,-3.754,-3.7612,-3.7694,-3.7706,-3.7717,-3.7856,-3.7885,-3.791,0,0,0,0,0,0,-3.7754,-3.7696,-3.7648,-3.7732,-3.7723,-3.7677,-3.773,-3.767,-3.7679,-3.7666,-3.7587,-3.7581,-3.766,-3.7642,-3.7578,-3.7725,-3.7631,-3.7645,-3.7734,-3.7761,-3.7783,-3.7787,-3.7456,0,0,0,0,0,-3.7796,-3.7826,-3.7774,-3.7854,-3.7852,-3.7792,-3.7804,-3.7756,-3.7743,-3.7739,-3.7709,-3.7701,-3.7725,-3.7742,-3.776,-3.7862,-3.7855,-3.7916,-3.7938,-3.7957,-3.797,-3.8026,-3.8054,-3.7763,-3.7762,-3.7762,0,0,-3.7883,-3.7855,-3.7879,-3.7883,-3.787,-3.7905,-3.779,-3.7831,-3.7857,-3.7745,-3.7806,-3.7785,-3.7771,-3.7857,-3.7893,-3.7844,-3.8049,-3.7972,-3.7987,-3.799,-3.8042,-3.8069,-3.8094,-3.7771,-3.7769,-3.7768,0,0,-3.806,-3.8041,-3.8107,-3.8096,-3.8078,-3.8038,-3.8054,-3.8018,-3.8,-3.806,-3.7978,-3.8009,-3.805,-3.8044,-3.8047,-3.8226,-3.8162,-3.8234,-3.8351,-3.8407,-3.843,-3.845,-3.8517,-3.8541,-3.8247,-3.8247,-3.8248,0,-3.8171,-3.8219,-3.8148,-3.8196,-3.8202,-3.8102,-3.8169,-3.8163,-3.8152,-3.816,-3.8105,-3.8157,-3.814,-3.8225,-3.8269,-3.8273,-3.8292,-3.8237,-3.8432,-3.8452,-3.8469,-3.8532,-3.8557,-3.8256,-3.8255,-3.8254,-3.8254,0,-3.8358,-3.8394,-3.8449,-3.8442,-3.8453,-3.8511,-3.8451,-3.8471,-3.8423,-3.839,-3.8454,-3.8431,-3.8444,-3.8461,-3.8413,-3.854,-3.8511,-3.8446,-3.835,-3.8507,-3.8565,-3.8588,-3.8269,-3.8266,-3.8263,-3.8261,0,0,-3.8625,-3.8579,-3.8601,-3.8598,-3.8572,-3.8599,-3.8653,-3.8666,-3.8687,-3.8683,-3.8729,-3.8768,-3.8708,-3.8711,-3.8663,-3.8712,-3.8859,-3.8641,-3.8639,-3.8685,-3.9001,-3.9052,-3.9081,-3.8817,-3.8821,-3.8824,-3.9003,0,-3.8796,-3.8885,-3.8824,-3.8925,-3.8958,-3.8865,-3.8913,-3.8904,-3.8875,-3.8901,-3.887,-3.89,-3.8817,-3.8819,-3.8863,-3.8832,-3.8922,-3.8818,-3.8862,-3.8864,-3.887,-3.911,-3.9163,-3.9333,-3.9025,-3.9029,-3.9031,0,-3.9006,-3.9013,-3.9117,-3.9087,-3.9099,-3.9143,-3.9152,-3.9177,-3.9166,-3.9141,-3.9147,-3.9087,-3.9141,-3.9047,-3.9122,-3.9053,-3.9067,-3.9055,-3.906,-3.9063,-3.8958,-3.9122,-3.9385,-3.9412,-3.9066,-3.9063,-3.9061,0,-3.9194,-3.9229,-3.9296,-3.9296,-3.9262,-3.9296,-3.9284,-3.9268,-3.928,-3.9288,-3.9297,-3.9311,-3.932,-3.9334,-3.9281,-3.9216,-3.9365,-3.9265,-3.9349,-3.9351,-3.9385,-3.9384,-3.9657,-3.9392,-3.9391,-3.9391,-3.939,0,-3.9392,-3.946,-3.9381,-3.9423,-3.9497,-3.9428,-3.9504,-3.9482,-3.9469,-3.9507,-3.9427,-3.9465,-3.9392,-3.9423,-3.9382,-3.9453,-3.9456,-3.9441,-3.9429,-3.9449,-3.9451,-3.9458,-3.9446,-3.9398,-3.9396,-3.9395,-3.9394,0,-3.9615,-3.9564,-3.9632,-3.9595,-3.9587,-3.9644,-3.9613,-3.9652,-3.9619,-3.9668,-3.9675,-3.9624,-3.9656,-3.9605,-3.9631,-3.9604,-3.9703,-3.9672,-3.9707,-3.9699,-3.9787,-3.9781,-4.0075,-4.0111,-3.9822,-3.9824,-3.9827,0,-3.9745,-3.9795,-3.9765,-3.9784,-3.9776,-3.9808,-3.9821,-3.9755,-3.9773,-3.9766,-3.9806,-3.9832,-3.9849,-3.9906,-3.9873,-3.9894,-3.9865,-3.9966,-3.9867,-3.9887,-3.9869,-3.9868,-3.9874,-3.9987,-3.9991,-3.9994,-3.9996,0,-3.9983,-3.9956,-3.9977,-3.9991,-4.0009,-4.0016,-4.0018,-4.0039,-3.997,-3.9994,-4.0027,-4.004,-4.0068,-4.0096,-4.0109,-4.0099,-4.0038,-4.0028,-4.0049,-4.007,-4.0089,-4.0083,-3.9765,-4.0021,-4.0019,-4.0017,-4.0016,-4.0014,-4.0165,-4.0207,-4.0192,-4.0219,-4.0214,-4.0219,-4.0254,-4.0226,-4.0251,-4.0268,-4.0229,-4.0272,-4.0263,-4.0274,-4.027,-4.0305,-4.026,-4.029,-4.0298,-4.0307,-4.0322,-4.0082,-4.0307,-4.0306,-4.0305,-4.0304,-4.0304,0,-4.0401,-4.0388,-4.0413,-4.0419,-4.0442,-4.0381,-4.0381,-4.0405,-4.0443,-4.0439,-4.0458,-4.0498,-4.0525,-4.0495,-4.0517,-4.0551,-4.0524,-4.0559,-4.0557,-4.0557,-4.0359,-4.034,-4.0581,-4.0581,-4.0581,-4.0581,-4.0581,-4.0581,-4.0526,-4.0595,-4.0567,-4.0634,-4.062,-4.0661,-4.0667,-4.0672,-4.0668,-4.0716,-4.0738,-4.0718,-4.0704,-4.0726,-4.0749,-4.074,-4.0753,-4.0799,-4.0781,-4.0597,-4.057,-4.0544,-4.0526,-4.0802,-4.0802,-4.0975,-4.0977,-4.0978]},{"header":{"parameterUnit":"m.s-1","parameterCategory":1,"la1":30.2991,"la2":30.254,"lo1":-89.0895,"lo2":-89.0444,"dy":0.0017,"dx":0.0017,"nx":28,"ny":28,"refTime":"2025-09-07T21:00:00:Z","depth":0,"parameterNumber":3,"parameterNumberName":"V-component_of_WINDS"},"data":[0,0,0,0,0,0,0,0,0,0,0,0,0,0,0,0,0,0,0,0,0,0,0,0,0,0,0,0,0,0,0,0,0,0,0,0,0,0,0,0,0,0,0,0,0,0,0,0,0,0,0,0,0,0,0,0,0,0,0.9185,0.9184,0,0.9147,0.9147,0.9147,0.9141,0.9142,0.9142,0.9143,0.9099,0.9098,0.9096,0,0,0,0,0,0,0,0,0,0,0,0,0,0.9247,0.9246,0.9185,0.9184,0.9184,0.9147,0.9147,0.9146,0.9141,0.9142,0.9142,0.9143,0.91,0.9098,0.9096,0,0,0,0,0,0,0,0,0,0,0,0,0,0.9216,0.9246,0.9185,0.9177,0.9176,0.9148,0.9147,0.9146,0.9141,0.9142,0.9142,0.9143,0.91,0.9098,0.9096,0.9071,0,0,0.9089,0.9088,0,0,0,0,0,0,0,0,0.9218,0.9214,0.9179,0.9178,0.9176,0.915,0.9153,0.9121,0.9141,0.9154,0.9143,0.9143,0.9115,0.9112,0.9103,0.9069,0.9067,0.9089,0.9087,0.9087,0.9086,0,0,0,0,0,0,0,0.922,0.9215,0.917,0.9178,0.9177,0.9174,0.917,0.9147,0.9132,0.9153,0.9153,0.9149,0.9115,0.9106,0.9102,0.9067,0.9089,0.9087,0.9086,0.9085,0.9009,0.9008,0,0,0,0,0,0,0.9224,0.9217,0.9171,0.9169,0.9199,0.9172,0.9168,0.9158,0.9132,0.9129,0.9148,0.9149,0.9109,0.9105,0.9101,0.9069,0.9087,0.9084,0.9083,0.901,0.9009,0.9008,0,0,0,0,0,0,0.9226,0.922,0.9173,0.9193,0.9187,0.9171,0.9159,0.9157,0.9148,0.9129,0.9125,0.9142,0.9109,0.9104,0.9079,0.9068,0.9083,0.9081,0.901,0.9009,0.9008,0.9006,0,0,0,0,0,0,0.9227,0.9221,0.9212,0.9193,0.9186,0.9152,0.9158,0.9156,0.9144,0.9144,0.9122,0.9119,0.9109,0.9082,0.9076,0.9065,0.908,0.9011,0.901,0.9009,0.9007,0.9005,0.9004,0,0,0,0,0,0.923,0.9212,0.9212,0.9206,0.9175,0.9152,0.9147,0.9139,0.9144,0.9134,0.9122,0.9119,0.907,0.908,0.9073,0.9061,0.9012,0.901,0.9009,0.9008,0.9006,0.9004,0,0,0,0,0,0,0.9229,0.9209,0.9209,0.9185,0.917,0.9151,0.9139,0.9137,0.9119,0.912,0.9108,0.9103,0.9078,0.9067,0.9078,0.9035,0.9041,0.9038,0.9043,0.904,0.9039,0.9041,0.9078,0,0,0,0,0,0.9226,0.9211,0.9194,0.9174,0.9167,0.9154,0.9144,0.9139,0.9122,0.9116,0.9102,0.9084,0.9065,0.9052,0.9034,0.9006,0.9,0.8994,0.8993,0.8991,0.8988,0.8972,0.8969,0.9003,0.9003,0.9003,0,0,0.922,0.9207,0.9198,0.9174,0.9162,0.9144,0.9149,0.913,0.9117,0.9112,0.9087,0.9077,0.9057,0.903,0.9018,0.902,0.8978,0.8989,0.8989,0.8986,0.897,0.8967,0.8964,0.9002,0.9002,0.9002,0,0,0.9199,0.9189,0.9171,0.9159,0.9142,0.9133,0.9129,0.911,0.9103,0.9079,0.9075,0.9058,0.9026,0.9011,0.9,0.8975,0.8971,0.8969,0.8959,0.8943,0.894,0.8937,0.8927,0.8923,0.8966,0.8966,0.8966,0,0.9192,0.9167,0.9161,0.9143,0.9132,0.9129,0.911,0.9098,0.9075,0.9067,0.9071,0.9029,0.9016,0.8985,0.8979,0.8971,0.8964,0.897,0.8941,0.8939,0.8936,0.8926,0.8922,0.8966,0.8966,0.8966,0.8966,0,0.916,0.9142,0.913,0.9109,0.9097,0.9078,0.9068,0.9056,0.9052,0.9043,0.9017,0.9001,0.8979,0.8972,0.8967,0.894,0.8942,0.8944,0.8949,0.8933,0.8922,0.8919,0.8965,0.8966,0.8966,0.8966,0,0,0.9135,0.9112,0.9107,0.9098,0.9079,0.9064,0.9045,0.9025,0.9014,0.8999,0.8981,0.8954,0.8956,0.8943,0.8937,0.8923,0.8902,0.8926,0.8925,0.8921,0.887,0.8867,0.8863,0.8901,0.89,0.8899,0.8871,0,0.9111,0.9078,0.9072,0.9043,0.9026,0.9023,0.9007,0.8992,0.8984,0.8967,0.8957,0.8937,0.8942,0.8933,0.892,0.8908,0.8891,0.891,0.8882,0.8881,0.8885,0.8858,0.8855,0.8828,0.8867,0.8866,0.8866,0,0.9077,0.9062,0.9032,0.9015,0.9007,0.8993,0.8973,0.8958,0.8942,0.8936,0.8922,0.8918,0.8896,0.8905,0.8874,0.8887,0.8875,0.8867,0.8866,0.8861,0.8871,0.885,0.882,0.8815,0.886,0.886,0.8861,0,0.906,0.9032,0.901,0.9002,0.8983,0.8972,0.8963,0.8947,0.8936,0.8918,0.891,0.8891,0.8879,0.8863,0.8853,0.8861,0.8822,0.883,0.8815,0.8815,0.8805,0.8806,0.8771,0.8802,0.8802,0.8802,0.8802,0,0.9032,0.9013,0.9003,0.8989,0.8967,0.896,0.8938,0.8929,0.8915,0.8898,0.8895,0.8879,0.8868,0.885,0.8842,0.8817,0.8812,0.8805,0.8803,0.8804,0.8805,0.8795,0.8796,0.8801,0.8801,0.8801,0.8801,0,0.9008,0.9001,0.8976,0.8961,0.8956,0.8941,0.8926,0.8912,0.8904,0.8883,0.8877,0.8864,0.8842,0.8831,0.8804,0.8799,0.877,0.877,0.8776,0.8774,0.8759,0.876,0.8715,0.8707,0.8745,0.8745,0.8745,0,0.899,0.8975,0.8958,0.8948,0.8939,0.8922,0.891,0.8903,0.8891,0.8871,0.8859,0.8838,0.882,0.8786,0.8773,0.8752,0.875,0.8736,0.8746,0.8748,0.8747,0.8747,0.8745,0.8733,0.8732,0.8732,0.8732,0,0.8957,0.8955,0.8939,0.8922,0.8908,0.8894,0.888,0.8871,0.8861,0.8848,0.8827,0.8813,0.8787,0.8765,0.8743,0.8732,0.8729,0.8729,0.8724,0.8724,0.8727,0.8723,0.8768,0.8729,0.873,0.873,0.873,0.873,0.8934,0.8921,0.8907,0.8889,0.8878,0.8865,0.8851,0.8842,0.8825,0.8804,0.88,0.8778,0.8761,0.8732,0.8721,0.8701,0.8704,0.8697,0.8695,0.8693,0.8691,0.8733,0.8698,0.8698,0.8698,0.8698,0.8698,0,0.89,0.8891,0.8875,0.8856,0.8842,0.8844,0.8828,0.8815,0.8796,0.8782,0.8765,0.8741,0.872,0.8706,0.8684,0.8672,0.867,0.8666,0.8666,0.8663,0.8691,0.8697,0.8668,0.8668,0.8668,0.8668,0.8668,0.8668,0.888,0.8857,0.8853,0.8824,0.8815,0.8794,0.8785,0.8772,0.8761,0.8734,0.8718,0.8709,0.8695,0.8672,0.8653,0.8649,0.864,0.8636,0.8632,0.8658,0.8661,0.8664,0.8669,0.8635,0.8635,0.8605,0.8604,0.8604]}]]